Terminal Aerodrome Forecast
Issued by NWS Missoula, MT

Home | Current Version | Previous Version | Text Only | Print | Product List | Glossary On
Versions: 1 2 3 4 5 6 7 8 9 10 11 12 13 14 15 16 17
745
FTUS45 KMSO 241126
TAFBTM
TAF
KBTM 241126Z 2412/2512 VRB03KT P6SM FEW010 BKN060=

USA.gov is the U.S. government's official web portal to all federal, state and local government web resources and services.